{"data":{"norad_id":64794,"intl_designator":"2025-150E","name":"STARLINK-34666","alt_names":[],"object_type":"PAYLOAD","status":"ACTIVE","operator":null,"country":"US","launch_date":"2025-07-16","launch_site_code":"AFWTR","launch_vehicle":null,"mission":null,"orbit_class":"UNKNOWN","rcs_meters":null,"size_class":null,"mass_kg":null,"dimensions":null,"purposes":["comms"],"wikipedia_slug":null,"has_3d_model":false,"image_url":null,"decayed_at":null,"tle_current":{"epoch":"2026-05-25T03:21:14.857056Z","epoch_age_seconds":62699,"freshness":"FRESH","line1":"1 64794U 25150E   26145.13975529 -.00000832  00000+0 -61977-4 0  9990","line2":"2 64794  70.0005 301.8862 0002556 270.8533  89.2333 14.98328647 47964","mean_motion":14.98328647,"eccentricity":0.0002556,"inclination_deg":70.0005,"raan_deg":301.8862,"arg_perigee_deg":270.8533,"mean_anomaly_deg":89.2333,"bstar":-6.1977e-5,"rev_number":4796,"period_min":96.107085910906,"perigee_km":570.28360461609,"apogee_km":573.83654536082,"semimajor_km":6950.1970749885,"source":"CELESTRAK","updated_at":"2026-05-25T13:38:20.563350Z"}}}